| time (UTC) | temp F | wind direction | speed MPH | gust MPH | rain 1hr in | rain 24hr in | rain mn in | humidity % | barometer mb |
| 20260506044507 | 49 | 180 | 0.0 | 0.0 | 0.00 | 0.03 | 0.01 | 96 | 1016.8 |
| 20260506043006 | 49 | 180 | 0.0 | 0.0 | 0.00 | 0.03 | 0.01 | 96 | 1016.6 |
| 20260506041503 | 49 | 180 | 0.0 | 0.0 | 0.00 | 0.03 | 0.01 | 95 | 1016.7 |
| 20260506040002 | 49 | 180 | 0.0 | 0.0 | 0.00 | 0.15 | 0.01 | 95 | 1016.4 |
| 20260506034503 | 49 | 180 | 0.0 | 0.0 | 0.00 | 0.15 | 0.01 | 95 | 1016.5 |
| 20260506033100 | 49 | 180 | 0.0 | 0.0 | 0.00 | 0.15 | 0.01 | 95 | 1016.2 |
| 20260506031604 | 49 | 180 | 0.0 | 0.0 | 0.00 | 0.15 | 0.01 | 95 | 1015.7 |
| 20260506030057 | 49 | 180 | 0.0 | 0.0 | 0.00 | 0.15 | 0.01 | 95 | 1015.9 |
| 20260506024558 | 49 | 180 | 0.0 | 0.0 | 0.00 | 0.24 | 0.01 | 95 | 1016.0 |
| 20260506023101 | 49 | 180 | 0.0 | 0.0 | 0.00 | 0.24 | 0.01 | 95 | 1015.6 |
| 20260506021554 | 49 | 180 | 0.0 | 0.0 | 0.00 | 0.24 | 0.01 | 95 | 1015.5 |
| 20260506020154 | 49 | 180 | 0.0 | 0.0 | 0.00 | 0.24 | 0.01 | 95 | 1015.2 |
| 20260506014552 | 50 | 180 | 0.0 | 0.0 | 0.00 | 0.25 | 0.01 | 95 | 1015.2 |
| 20260506013106 | 50 | 180 | 0.0 | 0.0 | 0.00 | 0.25 | 0.01 | 95 | 1015.1 |
| 20260506011557 | 50 | 181 | 0.0 | 0.0 | 0.00 | 0.25 | 0.01 | 95 | 1015.0 |
| 20260506010105 | 49 | 181 | 0.0 | 0.0 | 0.00 | 0.36 | 0.01 | 95 | 1015.0 |
| 20260506004548 | 49 | 181 | 0.0 | 0.0 | 0.00 | 0.36 | 0.01 | 96 | 1015.0 |
| 20260506003048 | 49 | 181 | 0.0 | 0.0 | 0.00 | 0.36 | 0.01 | 95 | 1015.0 |
| 20260506001554 | 49 | 181 | 0.0 | 0.0 | 0.00 | 0.36 | 0.01 | 95 | 1014.9 |
| 20260506000045 | 49 | 181 | 0.0 | 0.0 | 0.00 | 0.41 | 0.01 | 95 | 1014.8 |
| 20260505234545 | 49 | 181 | 0.0 | 0.0 | 0.00 | 0.41 | 0.01 | 95 | 1014.9 |
| 20260505233059 | 49 | 181 | 0.0 | 0.0 | 0.00 | 0.41 | 0.01 | 95 | 1014.7 |
| 20260505231545 | 49 | 181 | 0.0 | 0.0 | 0.00 | 0.41 | 0.01 | 95 | 1015.0 |
| 20260505230052 | 49 | 181 | 0.0 | 0.0 | 0.00 | 0.46 | 0.01 | 95 | 1015.0 |
| 20260505224545 | 49 | 181 | 0.0 | 0.0 | 0.00 | 0.46 | 0.01 | 95 | 1014.9 |
| 20260505223046 | 49 | 181 | 0.0 | 0.0 | 0.00 | 0.46 | 0.01 | 95 | 1015.2 |
| 20260505221542 | 49 | 181 | 0.0 | 0.0 | 0.00 | 0.46 | 0.01 | 94 | 1015.0 |
| 20260505220041 | 49 | 181 | 0.0 | 0.0 | 0.00 | 0.61 | 0.01 | 95 | 1015.0 |
| 20260505214541 | 49 | 181 | 0.0 | 0.0 | 0.00 | 0.61 | 0.01 | 95 | 1015.2 |
| 20260505213037 | 48 | 181 | 0.0 | 0.0 | 0.00 | 0.61 | 0.01 | 96 | 1015.1 |
| 20260505211536 | 48 | 181 | 0.0 | 0.0 | 0.00 | 0.61 | 0.01 | 96 | 1015.2 |
| 20260505210034 | 48 | 181 | 0.0 | 1.0 | 0.00 | 0.61 | 0.01 | 95 | 1015.2 |
| 20260505204534 | 48 | 181 | 0.0 | 0.0 | 0.00 | 0.61 | 0.01 | 95 | 1015.1 |
| 20260505203037 | 48 | 181 | 0.0 | 0.0 | 0.00 | 0.61 | 0.01 | 95 | 1015.0 |
| 20260505201542 | 48 | 181 | 0.0 | 0.0 | 0.00 | 0.61 | 0.01 | 96 | 1015.1 |
| 20260505200033 | 47 | 181 | 0.0 | 0.0 | 0.00 | 0.61 | 0.01 | 96 | 1015.1 |
| 20260505194532 | 47 | 181 | 0.0 | 1.0 | 0.00 | 0.61 | 0.01 | 96 | 1015.2 |
| 20260505193030 | 47 | 331 | 0.0 | 0.0 | 0.00 | 0.61 | 0.01 | 96 | 1015.0 |
| 20260505191527 | 47 | 331 | 0.0 | 0.0 | 0.00 | 0.61 | 0.01 | 96 | 1014.9 |
| 20260505190034 | 48 | 331 | 0.0 | 0.0 | 0.00 | 0.61 | 0.01 | 96 | 1014.9 |
| 20260505184526 | 47 | 331 | 0.0 | 0.0 | 0.00 | 0.61 | 0.01 | 96 | 1014.9 |
| 20260505183023 | 47 | 331 | 0.0 | 0.0 | 0.00 | 0.61 | 0.01 | 96 | 1014.8 |
| 20260505181521 | 47 | 331 | 0.0 | 0.0 | 0.00 | 0.61 | 0.01 | 96 | 1014.7 |
| 20260505180020 | 47 | 331 | 0.0 | 0.0 | 0.00 | 0.61 | 0.01 | 96 | 1014.7 |
| 20260505174520 | 46 | 331 | 0.0 | 0.0 | 0.00 | 0.61 | 0.01 | 96 | 1014.6 |
| 20260505173027 | 47 | 331 | 0.0 | 0.0 | 0.00 | 0.61 | 0.01 | 96 | 1014.6 |
| 20260505171523 | 47 | 331 | 0.0 | 0.0 | 0.00 | 0.61 | 0.01 | 96 | 1014.4 |
| 20260505170019 | 46 | 331 | 0.0 | 0.0 | 0.00 | 0.61 | 0.01 | 96 | 1014.6 |
| 20260505164515 | 46 | 331 | 0.0 | 0.0 | 0.00 | 0.61 | 0.01 | 96 | 1014.4 |
| 20260505163012 | 46 | 331 | 0.0 | 1.0 | 0.00 | 0.61 | 0.01 | 96 | 1014.3 |
| 20260505161509 | 45 | 331 | 0.0 | 0.0 | 0.00 | 0.61 | 0.01 | 96 | 1014.1 |
| 20260505153007 | 45 | 331 | 0.0 | 0.0 | 0.00 | 0.61 | 0.01 | 96 | 1014.1 |
| 20260505151504 | 45 | 331 | 0.0 | 0.0 | 0.00 | 0.61 | 0.01 | 96 | 1013.8 |
| 20260505124654 | 43 | 48 | 0.0 | 0.0 | 0.00 | 0.61 | 0.01 | 96 | 1012.9 |
| 20260505123050 | 43 | 48 | 0.0 | 0.0 | 0.00 | 0.61 | 0.01 | 96 | 1012.8 |
| 20260505121549 | 43 | 48 | 0.0 | 1.0 | 0.00 | 0.61 | 0.01 | 96 | 1012.9 |
| 20260505120104 | 43 | 46 | 0.0 | 0.0 | 0.00 | 0.61 | 0.01 | 96 | 1012.9 |
| 20260505114546 | 43 | 44 | 0.0 | 1.0 | 0.00 | 0.61 | 0.01 | 96 | 1012.9 |
| 20260505113047 | 44 | 45 | 0.0 | 0.0 | 0.00 | 0.61 | 0.01 | 96 | 1012.9 |
| 20260505111544 | 44 | 37 | 0.0 | 1.0 | 0.00 | 0.61 | 0.01 | 96 | 1013.0 |
| 20260505101540 | 44 | 5 | 0.0 | 1.0 | 0.00 | 0.61 | 0.01 | 96 | 1012.9 |
| 20260505100040 | 44 | 329 | 0.0 | 1.0 | 0.00 | 0.61 | 0.01 | 96 | 1012.8 |
| 20260505094538 | 44 | 77 | 0.0 | 1.0 | 0.00 | 0.61 | 0.01 | 96 | 1013.0 |
| 20260505093041 | 44 | 256 | 0.0 | 2.0 | 0.00 | 0.61 | 0.01 | 96 | 1013.2 |
| 20260505091536 | 44 | 153 | 0.0 | 2.0 | 0.00 | 0.61 | 0.01 | 96 | 1013.3 |
| 20260505090043 | 44 | 124 | 0.0 | 4.0 | 0.00 | 0.61 | 0.01 | 96 | 1013.1 |
| 20260505084535 | 44 | 54 | 0.0 | 3.0 | 0.00 | 0.61 | 0.01 | 96 | 1013.3 |
| 20260505083034 | 44 | 355 | 0.0 | 1.0 | 0.00 | 0.61 | 0.01 | 96 | 1013.6 |
| 20260505081539 | 44 | 345 | 0.0 | 3.0 | 0.00 | 0.61 | 0.01 | 96 | 1013.5 |
| 20260505080037 | 44 | 46 | 0.0 | 0.0 | 0.01 | 0.61 | 0.01 | 96 | 1013.6 |
| 20260505074530 | 44 | 46 | 0.0 | 1.0 | 0.01 | 0.61 | 0.01 | 96 | 1013.6 |
| 20260505073045 | 44 | 46 | 0.0 | 0.0 | 0.01 | 0.61 | 0.01 | 96 | 1013.1 |
| 20260505071527 | 44 | 46 | 0.0 | 0.0 | 0.01 | 0.61 | 0.01 | 96 | 1013.0 |
| 20260505070025 | 44 | 46 | 0.0 | 0.0 | 0.00 | 0.60 | 0.60 | 96 | 1013.3 |
| 20260505064537 | 44 | 46 | 0.0 | 0.0 | 0.00 | 0.60 | 0.60 | 96 | 1013.6 |
| 20260505063023 | 44 | 46 | 0.0 | 0.0 | 0.00 | 0.60 | 0.60 | 95 | 1013.6 |
| 20260505061531 | 44 | 46 | 0.0 | 1.0 | 0.00 | 0.60 | 0.60 | 96 | 1013.5 |
| 20260505060021 | 44 | 46 | 0.0 | 0.0 | 0.00 | 0.60 | 0.60 | 96 | 1013.8 |